RH
44 45 43 42 44 47 46 52 61 58 59 56 56 61 61 60 60 60 57 57 50 45 41 37 36 36 40 45 48 47 45 41 39 41 40 39 39 41 41 42 42 42 41
44 45 44 44 43 40 43 48 60 62 65 62 61 64 66 65 64 63 59 56 54 45 39 38 40 42 47 52 55 53 53 50 54 50 48 49 50 50 48 46 46 47 47
40 41 41 39 40 41 41 50 58 61 66 68 62 60 66 68 71 71 59 57 55 47 44 45 48 53 56 59 59 66 69 67 53 49 52 54 54 51 54 55 54 55 54
36 41 45 47 45 48 51 54 59 61 66 67 66 59 68 75 79 76 60 60 59 52 50 52 52 62 65 66 74 79 70 65 52 53 55 58 59 56 55 57 58 58 58
45 44 48 54 53 51 53 62 74 74 74 68 68 61 72 84 80 77 69 64 62 56 59 63 67 71 78 87 93 89 71 55 58 55 55 56 56 61 64 58 56 56 57
44 43 48 54 56 56 57 72 88 70 74 72 69 64 66 75 74 70 69 65 66 62 69 72 71 73 84 93 92 74 59 59 56 54 59 62 62 59 57 53 52 54 53
42 46 47 49 56 55 58 66 86 84 73 74 74 64 62 69 69 70 67 68 70 73 77 82 83 80 74 85 78 61 60 55 56 65 66 61 57 54 52 52 53 52 53
35 39 44 44 50 53 55 65 83 79 67 68 62 55 56 65 67 70 73 77 77 80 83 81 70 75 79 77 62 63 59 61 65 62 57 55 53 54 61 61 58 55 54
38 33 36 39 45 43 52 58 70 63 52 53 49 49 58 59 65 77 74 73 78 79 72 71 73 78 74 71 67 66 65 71 64 58 57 53 53 54 53 53 53 58 63
27 30 33 36 35 39 43 53 51 42 45 39 40 44 49 54 64 66 79 82 81 76 71 70 76 77 73 69 70 74 75 64 60 58 58 56 48 46 50 55 58 58 52
25 27 29 32 31 32 30 37 34 34 33 37 42 50 67 74 75 84 84 77 76 77 72 73 74 70 70 75 81 76 64 61 66 67 63 57 47 48 46 47 46 39 39
28 25 23 24 25 30 34 38 45 45 48 58 65 76 79 75 76 75 76 73 73 72 73 75 72 74 75 81 83 73 76 71 68 68 62 47 47 35 36 39 35 36 37
29 28 26 27 30 36 43 55 60 69 65 70 74 76 80 75 71 69 76 76 71 71 74 74 78 80 80 91 85 83 79 71 62 57 48 44 35 39 40 36 35 36 39
26 28 28 30 36 42 56 65 62 62 61 67 73 77 76 65 67 72 74 72 71 74 78 82 84 84 90 97 85 79 70 62 59 52 43 37 39 42 41 41 40 41 42
29 30 32 36 41 48 54 56 53 52 54 61 69 72 68 65 71 77 79 75 74 80 84 86 84 84 95 95 88 84 66 57 56 39 35 42 44 43 43 46 45 45 43
34 35 37 39 43 45 46 44 42 45 51 55 58 62 64 69 76 81 79 77 79 84 86 87 86 90 97 96 90 73 57 55 40 32 35 44 46 45 45 48 47 45 40
38 37 39 39 38 38 34 35 37 39 43 47 53 57 68 79 85 87 83 81 85 91 93 86 90 89 89 85 77 64 51 37 30 31 39 44 49 49 47 50 48 41 42
38 38 38 37 34 32 33 33 33 34 37 45 55 64 74 80 85 82 83 88 92 95 94 96 91 87 87 77 61 44 35 29 29 33 42 45 51 54 51 51 48 44 45
38 36 34 33 34 33 31 32 37 43 50 56 61 66 74 76 81 84 91 94 95 97 97 90 91 80 71 52 40 31 26 27 31 37 44 49 56 58 56 54 53 50 49
34 34 33 33 32 34 39 42 46 49 52 55 61 68 74 81 86 91 89 89 88 89 87 86 70 50 39 34 28 25 28 30 35 42 50 59 63 65 63 61 61 60 54
33 32 34 36 40 43 45 44 45 47 53 62 70 77 81 86 89 89 86 84 86 80 62 49 39 32 28 25 26 28 30 37 44 54 60 65 68 71 70 68 66 70 69
33 37 41 45 47 47 48 49 53 59 65 73 80 82 83 85 84 78 69 61 53 42 32 27 24 24 25 28 31 36 40 46 55 58 64 66 72 72 72 71 72 78 78
40 45 48 50 53 55 58 62 68 72 75 72 71 71 69 64 56 50 44 34 27 23 21 22 23 24 29 36 43 47 51 58 60 62 65 68 68 70 69 75 78 85 85
48 51 54 59 63 66 67 70 72 69 66 65 63 60 54 46 38 34 31 26 23 24 27 30 33 34 34 38 50 56 59 63 61 59 59 60 62 65 67 75 81 88 89
57 61 66 69 69 70 71 70 66 66 64 60 53 46 41 36 32 31 29 27 30 34 36 40 44 46 41 44 52 56 59 62 62 62 60 64 74 70 68 72 79 88 91
69 71 73 74 73 73 69 67 67 62 55 49 46 42 37 35 33 28 25 26 26 27 28 29 32 30 35 33 37 38 47 58 68 67 70 79 85 79 66 67 77 87 91